| time (UTC) | temp F | wind direction | speed knots | gust knots | rain 1hr in | rain 24hr in | rain mn in | humidity % | barometer mb |
| 20260505214010 | 50 | 75 | 2.6 | 10.4 | 0.00 | 0.00 | 0.00 | 82 | 1014.4 |
| 20260505213509 | 50 | 125 | 3.5 | 12.2 | 0.00 | 0.00 | 0.00 | 82 | 1014.5 |
| 20260505213028 | 50 | 110 | 3.5 | 12.2 | 0.00 | 0.00 | 0.00 | 82 | 1014.4 |
| 20260505212515 | 50 | 130 | 1.7 | 7.8 | 0.00 | 0.00 | 0.00 | 83 | 1014.4 |
| 20260505212013 | 50 | 98 | 0.9 | 7.8 | 0.00 | 0.00 | 0.00 | 82 | 1014.4 |
| 20260505211539 | 51 | 40 | 2.6 | 9.6 | 0.00 | 0.00 | 0.00 | 82 | 1014.4 |
| 20260505211013 | 51 | 94 | 1.7 | 9.6 | 0.00 | 0.00 | 0.00 | 82 | 1014.4 |
| 20260505210513 | 51 | 73 | 3.5 | 9.6 | 0.00 | 0.00 | 0.00 | 82 | 1014.4 |
| 20260505210030 | 51 | 86 | 2.6 | 7.0 | 0.00 | 0.00 | 0.00 | 81 | 1014.5 |
| 20260505205517 | 51 | 51 | 2.6 | 7.8 | 0.00 | 0.00 | 0.00 | 81 | 1014.4 |
| 20260505205010 | 51 | 70 | 2.6 | 8.7 | 0.00 | 0.00 | 0.00 | 80 | 1014.3 |
| 20260505204531 | 51 | 42 | 2.6 | 8.7 | 0.00 | 0.00 | 0.00 | 79 | 1014.3 |
| 20260505204010 | 51 | 50 | 2.6 | 7.8 | 0.00 | 0.00 | 0.00 | 78 | 1014.2 |
| 20260505203515 | 51 | 13 | 0.9 | 3.5 | 0.00 | 0.00 | 0.00 | 78 | 1014.1 |
| 20260505203037 | 52 | 0 | 0.0 | 1.7 | 0.00 | 0.00 | 0.00 | 77 | 1014.0 |
| 20260505202510 | 52 | 333 | 0.9 | 1.7 | 0.00 | 0.00 | 0.00 | 76 | 1014.0 |
| 20260505202012 | 52 | 333 | 0.9 | 1.7 | 0.00 | 0.00 | 0.00 | 75 | 1014.1 |
| 20260505201530 | 52 | 0 | 0.0 | 1.7 | 0.00 | 0.00 | 0.00 | 74 | 1014.0 |
| 20260505201015 | 52 | 340 | 0.0 | 1.7 | 0.00 | 0.00 | 0.00 | 74 | 1013.9 |
| 20260505200509 | 52 | 340 | 0.9 | 1.7 | 0.00 | 0.00 | 0.00 | 74 | 1014.0 |
| 20260505200030 | 52 | 340 | 0.9 | 1.7 | 0.00 | 0.00 | 0.00 | 74 | 1014.0 |
| 20260505195511 | 52 | 340 | 0.0 | 1.7 | 0.00 | 0.00 | 0.00 | 75 | 1013.8 |
| 20260505195010 | 52 | 341 | 0.0 | 1.7 | 0.00 | 0.00 | 0.00 | 75 | 1013.8 |
| 20260505194530 | 52 | 340 | 0.9 | 1.7 | 0.00 | 0.00 | 0.00 | 76 | 1013.8 |
| 20260505194011 | 52 | 340 | 0.0 | 1.7 | 0.00 | 0.00 | 0.00 | 76 | 1013.7 |
| 20260505193510 | 52 | 340 | 0.0 | 1.7 | 0.00 | 0.00 | 0.00 | 76 | 1013.6 |
| 20260505193030 | 52 | 340 | 0.0 | 1.7 | 0.00 | 0.00 | 0.00 | 76 | 1013.7 |
| 20260505192511 | 53 | 340 | 0.9 | 3.5 | 0.00 | 0.00 | 0.00 | 76 | 1013.7 |
| 20260505192009 | 53 | 0 | 0.9 | 3.5 | 0.00 | 0.00 | 0.00 | 76 | 1013.6 |
| 20260505191530 | 53 | 11 | 0.0 | 2.6 | 0.00 | 0.00 | 0.00 | 75 | 1013.7 |
| 20260505191011 | 53 | 0 | 0.9 | 2.6 | 0.00 | 0.00 | 0.00 | 75 | 1013.7 |
| 20260505190512 | 53 | 22 | 0.9 | 5.2 | 0.00 | 0.00 | 0.00 | 76 | 1013.6 |
| 20260505190028 | 53 | 0 | 0.0 | 5.2 | 0.00 | 0.00 | 0.00 | 75 | 1013.6 |
| 20260505185512 | 53 | 309 | 0.9 | 2.6 | 0.00 | 0.00 | 0.00 | 74 | 1013.6 |
| 20260505185012 | 53 | 344 | 0.9 | 2.6 | 0.00 | 0.00 | 0.00 | 73 | 1013.6 |
| 20260505184542 | 53 | 315 | 0.9 | 3.5 | 0.00 | 0.00 | 0.00 | 73 | 1013.6 |
| 20260505184014 | 53 | 304 | 0.0 | 3.5 | 0.00 | 0.00 | 0.00 | 73 | 1013.6 |
| 20260505183512 | 53 | 0 | 0.0 | 1.7 | 0.00 | 0.00 | 0.00 | 72 | 1013.5 |
| 20260505183038 | 53 | 0 | 0.0 | 2.6 | 0.00 | 0.00 | 0.00 | 72 | 1013.6 |
| 20260505182511 | 53 | 0 | 0.0 | 2.6 | 0.00 | 0.00 | 0.00 | 73 | 1013.5 |
| 20260505182017 | 54 | 322 | 0.9 | 2.6 | 0.00 | 0.00 | 0.00 | 72 | 1013.5 |
| 20260505181529 | 54 | 323 | 0.0 | 2.6 | 0.00 | 0.00 | 0.00 | 72 | 1013.5 |
| 20260505181013 | 54 | 334 | 0.0 | 2.6 | 0.00 | 0.00 | 0.00 | 72 | 1013.3 |
| 20260505180516 | 54 | 0 | 0.9 | 2.6 | 0.00 | 0.00 | 0.00 | 72 | 1013.5 |
| 20260505180028 | 54 | 344 | 0.9 | 2.6 | 0.00 | 0.00 | 0.00 | 70 | 1013.5 |
| 20260505175513 | 54 | 348 | 0.9 | 3.5 | 0.00 | 0.00 | 0.00 | 70 | 1013.4 |
| 20260505175012 | 55 | 0 | 0.0 | 3.5 | 0.00 | 0.00 | 0.00 | 70 | 1013.5 |
| 20260505174530 | 55 | 355 | 0.0 | 3.5 | 0.00 | 0.00 | 0.00 | 71 | 1013.4 |
| 20260505174012 | 55 | 316 | 0.9 | 2.6 | 0.00 | 0.00 | 0.00 | 69 | 1013.5 |
| 20260505173511 | 55 | 304 | 0.0 | 2.6 | 0.00 | 0.00 | 0.00 | 68 | 1013.5 |
| 20260505173028 | 55 | 0 | 0.0 | 2.6 | 0.00 | 0.00 | 0.00 | 68 | 1013.5 |
| 20260505172511 | 55 | 0 | 0.0 | 6.1 | 0.00 | 0.00 | 0.00 | 68 | 1013.5 |
| 20260505172012 | 55 | 21 | 0.9 | 6.1 | 0.00 | 0.00 | 0.00 | 70 | 1013.4 |
| 20260505171528 | 55 | 360 | 1.7 | 6.1 | 0.00 | 0.00 | 0.00 | 70 | 1013.6 |
| 20260505171012 | 55 | 5 | 1.7 | 6.1 | 0.00 | 0.00 | 0.00 | 70 | 1013.5 |
| 20260505170512 | 55 | 344 | 1.7 | 6.1 | 0.00 | 0.00 | 0.00 | 69 | 1013.5 |
| 20260505170036 | 55 | 347 | 0.0 | 2.6 | 0.00 | 0.00 | 0.00 | 69 | 1013.6 |
| 20260505165511 | 55 | 324 | 0.9 | 2.6 | 0.00 | 0.00 | 0.00 | 66 | 1013.6 |
| 20260505165012 | 55 | 48 | 0.9 | 6.1 | 0.00 | 0.00 | 0.00 | 68 | 1013.5 |
| 20260505164534 | 55 | 12 | 0.9 | 6.1 | 0.00 | 0.00 | 0.00 | 69 | 1013.5 |
| 20260505164012 | 55 | 345 | 0.9 | 3.5 | 0.00 | 0.00 | 0.00 | 68 | 1013.5 |
| 20260505163508 | 55 | 345 | 0.9 | 3.5 | 0.00 | 0.00 | 0.00 | 67 | 1013.5 |
| 20260505163029 | 55 | 0 | 0.9 | 3.5 | 0.00 | 0.00 | 0.00 | 67 | 1013.5 |
| 20260505162515 | 55 | 335 | 0.9 | 7.0 | 0.00 | 0.00 | 0.00 | 66 | 1013.4 |
| 20260505162011 | 56 | 325 | 1.7 | 7.0 | 0.00 | 0.00 | 0.00 | 67 | 1013.4 |
| 20260505161530 | 56 | 319 | 1.7 | 7.0 | 0.00 | 0.00 | 0.00 | 66 | 1013.3 |
| 20260505161011 | 56 | 355 | 0.9 | 7.0 | 0.00 | 0.00 | 0.00 | 69 | 1013.2 |
| 20260505160516 | 55 | 5 | 1.7 | 4.3 | 0.00 | 0.00 | 0.00 | 68 | 1013.2 |
| 20260505153028 | 57 | 338 | 0.9 | 5.2 | 0.00 | 0.00 | 0.00 | 64 | 1013.5 |
| 20260505152512 | 57 | 308 | 0.9 | 2.6 | 0.00 | 0.00 | 0.00 | 65 | 1013.4 |
| 20260505152013 | 57 | 0 | 0.9 | 3.5 | 0.00 | 0.00 | 0.00 | 65 | 1013.5 |
| 20260505151534 | 57 | 296 | 0.0 | 4.3 | 0.00 | 0.00 | 0.00 | 63 | 1013.6 |
| 20260505151012 | 57 | 31 | 0.9 | 4.3 | 0.00 | 0.00 | 0.00 | 67 | 1013.5 |
| 20260505150513 | 56 | 49 | 0.9 | 4.3 | 0.00 | 0.00 | 0.00 | 68 | 1013.5 |
| 20260505140512 | 57 | 314 | 0.9 | 4.3 | 0.00 | 0.00 | 0.00 | 64 | 1013.7 |
| 20260505125011 | 57 | 0 | 1.7 | 6.1 | 0.00 | 0.00 | 0.00 | 66 | 1013.9 |
| 20260505124528 | 56 | 350 | 1.7 | 6.1 | 0.00 | 0.00 | 0.00 | 66 | 1013.9 |
| 20260505124010 | 56 | 351 | 0.9 | 4.3 | 0.00 | 0.00 | 0.00 | 67 | 1013.8 |
| 20260505123511 | 57 | 10 | 1.7 | 4.3 | 0.00 | 0.00 | 0.00 | 65 | 1013.9 |
| 20260505123029 | 57 | 336 | 1.7 | 4.3 | 0.00 | 0.00 | 0.00 | 64 | 1013.8 |
| 20260505122512 | 57 | 342 | 0.9 | 5.2 | 0.00 | 0.00 | 0.00 | 65 | 1013.8 |
| 20260505122015 | 58 | 346 | 1.7 | 8.7 | 0.00 | 0.00 | 0.00 | 62 | 1013.9 |
| 20260505121536 | 58 | 42 | 1.7 | 8.7 | 0.00 | 0.00 | 0.00 | 63 | 1013.9 |
| 20260505121008 | 57 | 36 | 1.7 | 4.3 | 0.00 | 0.00 | 0.00 | 66 | 1013.8 |
| 20260505120516 | 57 | 352 | 0.9 | 4.3 | 0.00 | 0.00 | 0.00 | 64 | 1014.0 |
| 20260505120030 | 57 | 11 | 0.9 | 4.3 | 0.00 | 0.00 | 0.00 | 64 | 1013.9 |
| 20260505115509 | 58 | 53 | 1.7 | 8.7 | 0.00 | 0.00 | 0.00 | 62 | 1013.9 |
| 20260505115015 | 59 | 338 | 0.9 | 8.7 | 0.00 | 0.00 | 0.00 | 61 | 1013.8 |
| 20260505114530 | 59 | 24 | 1.7 | 8.7 | 0.00 | 0.00 | 0.00 | 64 | 1013.9 |
| 20260505114012 | 58 | 0 | 0.9 | 8.7 | 0.00 | 0.00 | 0.00 | 68 | 1014.0 |
| 20260505113511 | 56 | 360 | 1.7 | 8.7 | 0.00 | 0.00 | 0.00 | 70 | 1014.1 |
| 20260505113038 | 55 | 57 | 1.7 | 3.5 | 0.00 | 0.00 | 0.00 | 65 | 1014.2 |
| 20260505112511 | 55 | 348 | 1.7 | 3.5 | 0.00 | 0.00 | 0.00 | 66 | 1014.1 |
| 20260505112011 | 56 | 327 | 1.7 | 6.1 | 0.00 | 0.00 | 0.00 | 65 | 1014.2 |
| 20260505111540 | 57 | 317 | 0.9 | 7.8 | 0.00 | 0.00 | 0.00 | 64 | 1014.2 |
| 20260505111008 | 56 | 59 | 1.7 | 7.8 | 0.00 | 0.00 | 0.00 | 72 | 1014.3 |
| 20260505110508 | 56 | 327 | 0.9 | 7.0 | 0.00 | 0.00 | 0.00 | 67 | 1014.1 |
| 20260505102011 | 55 | 19 | 0.9 | 4.3 | 0.00 | 0.00 | 0.00 | 70 | 1014.6 |
| 20260505101533 | 55 | 16 | 1.7 | 7.8 | 0.00 | 0.00 | 0.00 | 72 | 1014.6 |
| 20260505101009 | 55 | 24 | 0.9 | 7.8 | 0.00 | 0.00 | 0.00 | 71 | 1014.6 |
| 20260505100508 | 56 | 304 | 1.7 | 7.8 | 0.00 | 0.00 | 0.00 | 74 | 1014.5 |
| 20260505100028 | 55 | 71 | 1.7 | 4.3 | 0.00 | 0.00 | 0.00 | 76 | 1014.5 |
| 20260505095508 | 54 | 355 | 0.9 | 3.5 | 0.00 | 0.00 | 0.00 | 76 | 1014.6 |
| 20260505095012 | 53 | 83 | 0.9 | 4.3 | 0.00 | 0.00 | 0.00 | 74 | 1014.7 |
| 20260505094530 | 54 | 9 | 0.9 | 4.3 | 0.00 | 0.00 | 0.00 | 73 | 1014.6 |
| 20260505094011 | 54 | 15 | 0.9 | 4.3 | 0.00 | 0.00 | 0.00 | 73 | 1014.6 |
| 20260505093511 | 53 | 348 | 0.9 | 4.3 | 0.00 | 0.00 | 0.00 | 74 | 1014.6 |
| 20260505093034 | 53 | 27 | 0.9 | 7.8 | 0.00 | 0.00 | 0.00 | 74 | 1014.6 |
| 20260505092512 | 53 | 0 | 1.7 | 7.8 | 0.00 | 0.00 | 0.00 | 75 | 1014.8 |
| 20260505092013 | 53 | 304 | 1.7 | 6.1 | 0.00 | 0.00 | 0.00 | 75 | 1014.7 |
| 20260505091529 | 53 | 75 | 1.7 | 6.1 | 0.00 | 0.00 | 0.00 | 76 | 1014.6 |
| 20260505091012 | 52 | 342 | 0.9 | 7.0 | 0.00 | 0.00 | 0.00 | 76 | 1014.7 |
| 20260505090511 | 52 | 0 | 1.7 | 7.0 | 0.00 | 0.00 | 0.00 | 77 | 1014.7 |
| 20260505090032 | 52 | 323 | 0.9 | 2.6 | 0.00 | 0.00 | 0.00 | 76 | 1014.7 |
| 20260505085512 | 51 | 31 | 0.9 | 4.3 | 0.00 | 0.00 | 0.00 | 76 | 1014.7 |
| 20260505085010 | 52 | 9 | 0.9 | 4.3 | 0.00 | 0.00 | 0.00 | 76 | 1014.8 |
| 20260505084531 | 53 | 5 | 0.9 | 4.3 | 0.00 | 0.00 | 0.00 | 75 | 1014.9 |
| 20260505084014 | 53 | 321 | 0.9 | 6.1 | 0.00 | 0.00 | 0.00 | 78 | 1014.9 |
| 20260505083513 | 54 | 9 | 0.9 | 6.1 | 0.00 | 0.00 | 0.00 | 80 | 1014.9 |
| 20260505083031 | 53 | 11 | 2.6 | 6.1 | 0.00 | 0.00 | 0.00 | 81 | 1014.9 |
| 20260505082511 | 52 | 13 | 1.7 | 6.1 | 0.00 | 0.00 | 0.00 | 82 | 1015.0 |
| 20260505082011 | 51 | 61 | 1.7 | 5.2 | 0.00 | 0.00 | 0.00 | 84 | 1015.0 |
| 20260505081530 | 50 | 55 | 0.9 | 3.5 | 0.00 | 0.00 | 0.00 | 82 | 1015.1 |
| 20260505081013 | 50 | 0 | 0.0 | 4.3 | 0.00 | 0.00 | 0.00 | 83 | 1015.1 |
| 20260505080510 | 50 | 0 | 0.9 | 4.3 | 0.00 | 0.00 | 0.00 | 83 | 1015.1 |
| 20260505080031 | 50 | 352 | 0.9 | 4.3 | 0.00 | 0.00 | 0.00 | 84 | 1015.2 |
| 20260505075507 | 50 | 0 | 0.9 | 4.3 | 0.00 | 0.00 | 0.00 | 83 | 1015.2 |
| 20260505075008 | 49 | 355 | 0.9 | 4.3 | 0.00 | 0.00 | 0.00 | 83 | 1015.2 |
| 20260505074530 | 49 | 5 | 0.9 | 4.3 | 0.00 | 0.00 | 0.00 | 85 | 1015.0 |
| 20260505074010 | 49 | 350 | 0.9 | 4.3 | 0.00 | 0.00 | 0.00 | 88 | 1015.1 |
| 20260505073509 | 49 | 48 | 1.7 | 4.3 | 0.00 | 0.00 | 0.00 | 88 | 1015.1 |
| 20260505073030 | 49 | 338 | 0.9 | 4.3 | 0.00 | 0.00 | 0.00 | 87 | 1015.1 |
| 20260505072511 | 49 | 325 | 0.9 | 3.5 | 0.00 | 0.00 | 0.00 | 87 | 1014.9 |
| 20260505072011 | 49 | 306 | 0.9 | 3.5 | 0.00 | 0.00 | 0.00 | 87 | 1015.1 |
| 20260505071532 | 49 | 350 | 0.9 | 3.5 | 0.00 | 0.00 | 0.00 | 87 | 1015.0 |
| 20260505071011 | 49 | 49 | 0.9 | 3.5 | 0.00 | 0.00 | 0.00 | 88 | 1015.0 |
| 20260505070511 | 48 | 5 | 1.7 | 6.1 | 0.00 | 0.00 | 0.00 | 88 | 1015.0 |
| 20260505070029 | 48 | 360 | 1.7 | 6.1 | 0.00 | 0.00 | 0.00 | 88 | 1015.0 |
| 20260505065511 | 48 | 19 | 0.0 | 1.7 | 0.00 | 0.00 | 0.00 | 88 | 1015.1 |
| 20260505065007 | 48 | 0 | 0.0 | 1.7 | 0.00 | 0.00 | 0.00 | 88 | 1015.1 |
| 20260505064529 | 48 | 0 | 0.0 | 1.7 | 0.00 | 0.00 | 0.00 | 89 | 1015.1 |
| 20260505064008 | 48 | 0 | 0.0 | 0.0 | 0.00 | 0.00 | 0.00 | 89 | 1015.2 |
| 20260505063509 | 48 | 0 | 0.0 | 0.0 | 0.00 | 0.00 | 0.00 | 90 | 1015.1 |
| 20260505063030 | 47 | 0 | 0.0 | 0.0 | 0.00 | 0.00 | 0.00 | 90 | 1015.1 |
| 20260505062512 | 47 | 0 | 0.0 | 0.0 | 0.00 | 0.00 | 0.00 | 90 | 1015.1 |
| 20260505062010 | 47 | 0 | 0.0 | 0.0 | 0.00 | 0.00 | 0.00 | 91 | 1015.2 |
| 20260505061534 | 47 | 0 | 0.0 | 0.0 | 0.00 | 0.00 | 0.00 | 91 | 1015.2 |
| 20260505061012 | 47 | 0 | 0.0 | 0.0 | 0.00 | 0.00 | 0.00 | 91 | 1015.2 |
| 20260505060512 | 47 | 0 | 0.0 | 0.0 | 0.00 | 0.00 | 0.00 | 91 | 1015.1 |
| 20260505060028 | 47 | 0 | 0.0 | 0.0 | 0.00 | 0.00 | 0.00 | 91 | 1015.1 |
| 20260505055514 | 46 | 0 | 0.0 | 0.0 | 0.00 | 0.00 | 0.00 | 91 | 1015.0 |
| 20260505055014 | 46 | 0 | 0.0 | 0.9 | 0.00 | 0.00 | 0.00 | 91 | 1015.0 |
| 20260505054542 | 46 | 0 | 0.0 | 1.7 | 0.00 | 0.00 | 0.00 | 91 | 1015.0 |
| 20260505054013 | 46 | 5 | 0.0 | 1.7 | 0.00 | 0.00 | 0.00 | 91 | 1015.0 |
| 20260505053511 | 46 | 0 | 0.0 | 1.7 | 0.00 | 0.00 | 0.00 | 91 | 1015.0 |
| 20260505053029 | 46 | 0 | 0.0 | 2.6 | 0.00 | 0.00 | 0.00 | 91 | 1014.9 |
| 20260505052510 | 46 | 0 | 0.9 | 2.6 | 0.00 | 0.00 | 0.00 | 91 | 1014.9 |
| 20260505052009 | 46 | 333 | 0.9 | 1.7 | 0.00 | 0.00 | 0.00 | 91 | 1014.9 |
| 20260505051527 | 46 | 0 | 0.9 | 1.7 | 0.00 | 0.00 | 0.00 | 91 | 1014.9 |
| 20260505051009 | 46 | 293 | 0.9 | 1.7 | 0.00 | 0.00 | 0.00 | 91 | 1014.7 |
| 20260505050514 | 46 | 293 | 0.9 | 1.7 | 0.00 | 0.00 | 0.00 | 91 | 1014.9 |
| 20260505041530 | 46 | 15 | 0.9 | 2.6 | 0.00 | 0.00 | 0.00 | 90 | 1014.6 |
| 20260505041009 | 46 | 16 | 0.9 | 2.6 | 0.00 | 0.00 | 0.00 | 90 | 1014.6 |
| 20260505040511 | 46 | 335 | 0.9 | 2.6 | 0.00 | 0.00 | 0.00 | 90 | 1014.5 |
| 20260505040038 | 46 | 333 | 0.9 | 2.6 | 0.00 | 0.00 | 0.00 | 91 | 1014.6 |
| 20260505035514 | 46 | 337 | 0.9 | 2.6 | 0.00 | 0.00 | 0.00 | 92 | 1014.7 |
| 20260505035011 | 46 | 338 | 0.9 | 2.6 | 0.00 | 0.00 | 0.00 | 92 | 1014.6 |
| 20260505034538 | 45 | 338 | 0.9 | 2.6 | 0.00 | 0.00 | 0.00 | 93 | 1014.7 |
| 20260505034011 | 45 | 343 | 0.0 | 1.7 | 0.00 | 0.00 | 0.00 | 94 | 1014.7 |
| 20260505033511 | 45 | 0 | 0.0 | 0.0 | 0.00 | 0.00 | 0.00 | 95 | 1014.7 |
| 20260505033028 | 45 | 0 | 0.0 | 0.0 | 0.00 | 0.00 | 0.00 | 96 | 1014.7 |
| 20260505032512 | 44 | 0 | 0.0 | 0.0 | 0.00 | 0.00 | 0.00 | 96 | 1014.7 |
| 20260505032009 | 44 | 0 | 0.0 | 0.0 | 0.00 | 0.00 | 0.00 | 96 | 1014.7 |
| 20260505031530 | 44 | 0 | 0.0 | 0.0 | 0.00 | 0.00 | 0.00 | 96 | 1014.7 |
| 20260505031008 | 44 | 0 | 0.0 | 0.0 | 0.00 | 0.00 | 0.00 | 96 | 1014.8 |
| 20260505030511 | 44 | 0 | 0.0 | 0.0 | 0.00 | 0.00 | 0.00 | 96 | 1014.8 |
| 20260505030030 | 44 | 0 | 0.0 | 0.0 | 0.00 | 0.00 | 0.00 | 97 | 1014.8 |
| 20260505025513 | 44 | 0 | 0.0 | 0.9 | 0.00 | 0.00 | 0.00 | 97 | 1014.8 |
| 20260505025010 | 44 | 0 | 0.0 | 1.7 | 0.00 | 0.00 | 0.00 | 97 | 1014.9 |
| 20260505024529 | 44 | 0 | 0.0 | 1.7 | 0.00 | 0.00 | 0.00 | 97 | 1014.9 |
| 20260505024011 | 44 | 350 | 0.0 | 1.7 | 0.00 | 0.00 | 0.00 | 97 | 1014.9 |
| 20260505023511 | 44 | 350 | 0.9 | 1.7 | 0.00 | 0.00 | 0.00 | 97 | 1014.9 |
| 20260505023030 | 45 | 350 | 0.0 | 1.7 | 0.00 | 0.00 | 0.00 | 97 | 1014.9 |
| 20260505022508 | 45 | 350 | 0.0 | 1.7 | 0.00 | 0.00 | 0.00 | 97 | 1015.0 |
| 20260505022009 | 45 | 350 | 0.0 | 1.7 | 0.00 | 0.00 | 0.00 | 97 | 1015.1 |
| 20260505021528 | 45 | 350 | 0.9 | 1.7 | 0.00 | 0.00 | 0.00 | 97 | 1015.1 |
| 20260505021012 | 45 | 0 | 0.0 | 1.7 | 0.00 | 0.00 | 0.00 | 97 | 1015.1 |
| 20260505020510 | 45 | 77 | 0.9 | 1.7 | 0.00 | 0.00 | 0.00 | 98 | 1015.0 |
| 20260505020037 | 44 | 81 | 0.0 | 1.7 | 0.00 | 0.00 | 0.00 | 97 | 1015.0 |
| 20260505015511 | 44 | 0 | 0.0 | 1.7 | 0.00 | 0.00 | 0.00 | 98 | 1015.1 |
| 20260505015013 | 43 | 0 | 0.0 | 1.7 | 0.00 | 0.00 | 0.00 | 98 | 1015.0 |
| 20260505014529 | 41 | 0 | 0.0 | 0.0 | 0.00 | 0.00 | 0.00 | 96 | 1015.2 |
| 20260505014011 | 41 | 0 | 0.0 | 0.0 | 0.00 | 0.00 | 0.00 | 96 | 1015.2 |
| 20260505013511 | 41 | 0 | 0.0 | 0.0 | 0.00 | 0.00 | 0.00 | 96 | 1015.2 |
| 20260505013030 | 41 | 0 | 0.0 | 0.0 | 0.00 | 0.00 | 0.00 | 95 | 1015.2 |
| 20260505012511 | 41 | 0 | 0.0 | 0.0 | 0.00 | 0.00 | 0.00 | 95 | 1015.3 |
| 20260505012012 | 41 | 0 | 0.0 | 0.0 | 0.00 | 0.00 | 0.00 | 95 | 1015.3 |
| 20260505011529 | 41 | 0 | 0.0 | 0.0 | 0.00 | 0.00 | 0.00 | 95 | 1015.2 |
| 20260505011012 | 41 | 0 | 0.0 | 0.0 | 0.00 | 0.00 | 0.00 | 95 | 1015.3 |
| 20260505010510 | 42 | 0 | 0.0 | 0.0 | 0.00 | 0.00 | 0.00 | 95 | 1015.4 |
| 20260505010028 | 42 | 0 | 0.0 | 0.0 | 0.00 | 0.00 | 0.00 | 95 | 1015.4 |
| 20260505005511 | 42 | 0 | 0.0 | 0.0 | 0.00 | 0.00 | 0.00 | 95 | 1015.5 |
| 20260505005012 | 42 | 0 | 0.0 | 0.0 | 0.00 | 0.00 | 0.00 | 95 | 1015.4 |
| 20260505004530 | 43 | 0 | 0.0 | 0.0 | 0.00 | 0.00 | 0.00 | 95 | 1015.4 |
| 20260505004010 | 43 | 0 | 0.0 | 0.0 | 0.00 | 0.00 | 0.00 | 96 | 1015.5 |
| 20260505003514 | 44 | 0 | 0.0 | 0.0 | 0.00 | 0.00 | 0.00 | 96 | 1015.5 |
| 20260505003030 | 44 | 0 | 0.0 | 0.0 | 0.00 | 0.00 | 0.00 | 96 | 1015.6 |
| 20260505002511 | 44 | 0 | 0.0 | 0.0 | 0.00 | 0.00 | 0.00 | 96 | 1015.6 |
| 20260505002011 | 44 | 0 | 0.0 | 0.0 | 0.00 | 0.00 | 0.00 | 96 | 1015.5 |
| 20260505001528 | 44 | 0 | 0.0 | 0.0 | 0.00 | 0.00 | 0.00 | 96 | 1015.7 |
| 20260505001012 | 44 | 0 | 0.0 | 0.0 | 0.00 | 0.00 | 0.00 | 96 | 1015.7 |
| 20260505000510 | 44 | 0 | 0.0 | 0.0 | 0.00 | 0.00 | 0.00 | 97 | 1015.7 |
| 20260505000042 | 43 | 0 | 0.0 | 0.0 | 0.00 | 0.00 | 0.00 | 96 | 1015.7 |
| 20260504235535 | 43 | 0 | 0.0 | 0.0 | 0.00 | 0.00 | 0.00 | 95 | 1015.8 |
| 20260504235012 | 43 | 0 | 0.0 | 0.0 | 0.00 | 0.00 | 0.00 | 95 | 1015.9 |
| 20260504234529 | 43 | 0 | 0.0 | 0.0 | 0.00 | 0.00 | 0.00 | 95 | 1015.9 |
| 20260504234010 | 43 | 0 | 0.0 | 0.0 | 0.00 | 0.00 | 0.00 | 95 | 1015.9 |
| 20260504233512 | 43 | 0 | 0.0 | 0.0 | 0.00 | 0.00 | 0.00 | 95 | 1015.8 |
| 20260504233030 | 43 | 0 | 0.0 | 0.0 | 0.00 | 0.00 | 0.00 | 95 | 1015.8 |
| 20260504232511 | 43 | 0 | 0.0 | 0.0 | 0.00 | 0.00 | 0.00 | 94 | 1015.8 |
| 20260504232012 | 44 | 0 | 0.0 | 0.0 | 0.00 | 0.00 | 0.00 | 94 | 1015.9 |
| 20260504231529 | 44 | 0 | 0.0 | 0.0 | 0.00 | 0.00 | 0.00 | 95 | 1015.9 |
| 20260504231013 | 44 | 0 | 0.0 | 0.0 | 0.00 | 0.00 | 0.00 | 95 | 1015.9 |
| 20260504230510 | 45 | 0 | 0.0 | 0.0 | 0.00 | 0.00 | 0.00 | 96 | 1016.0 |
| 20260504230029 | 44 | 0 | 0.0 | 0.0 | 0.00 | 0.00 | 0.00 | 96 | 1016.0 |
| 20260504225510 | 43 | 0 | 0.0 | 0.0 | 0.00 | 0.00 | 0.00 | 94 | 1016.0 |
| 20260504225010 | 43 | 0 | 0.0 | 0.0 | 0.00 | 0.00 | 0.00 | 93 | 1015.9 |
| 20260504224528 | 43 | 0 | 0.0 | 0.0 | 0.00 | 0.00 | 0.00 | 93 | 1015.8 |
| 20260504224013 | 43 | 0 | 0.0 | 0.0 | 0.00 | 0.00 | 0.00 | 93 | 1015.9 |
| 20260504223512 | 44 | 0 | 0.0 | 0.0 | 0.00 | 0.00 | 0.00 | 93 | 1015.9 |
| 20260504223029 | 44 | 0 | 0.0 | 0.0 | 0.00 | 0.00 | 0.00 | 93 | 1015.9 |
| 20260504222510 | 44 | 0 | 0.0 | 0.0 | 0.00 | 0.00 | 0.00 | 93 | 1015.9 |
| 20260504222011 | 44 | 0 | 0.0 | 0.0 | 0.00 | 0.00 | 0.00 | 93 | 1015.9 |
| 20260504221530 | 44 | 0 | 0.0 | 0.0 | 0.00 | 0.00 | 0.00 | 94 | 1015.9 |
| 20260504221010 | 44 | 0 | 0.0 | 0.0 | 0.00 | 0.00 | 0.00 | 93 | 1015.9 |
| 20260504220510 | 45 | 0 | 0.0 | 0.0 | 0.00 | 0.00 | 0.00 | 93 | 1015.9 |
| 20260504220041 | 45 | 0 | 0.0 | 0.0 | 0.00 | 0.00 | 0.00 | 93 | 1016.0 |
| 20260504215513 | 45 | 0 | 0.0 | 0.0 | 0.00 | 0.00 | 0.00 | 93 | 1016.1 |
| 20260504215011 | 45 | 0 | 0.0 | 0.0 | 0.00 | 0.00 | 0.00 | 93 | 1016.1 |
| 20260504214530 | 46 | 0 | 0.0 | 0.0 | 0.00 | 0.00 | 0.00 | 93 | 1016.1 |